Stations météo

Publicité
Sete, France (7641): Température de l'air & dewpoint: 28.05.2020 01:00:00 - 03.06.2020 01:00:00 (CEST)Sete, France (7641): Vitesse du vent & gusts: 28.05.2020 01:00:00 - 03.06.2020 01:00:00 (CEST)Sete, France (7641): Direction du vent: 28.05.2020 01:00:00 - 03.06.2020 01:00:00 (CEST)Sete, France (7641): reduced air pressure: 28.05.2020 01:00:00 - 03.06.2020 01:00:00 (CEST)Sete, France (7641): visibility: 28.05.2020 01:00:00 - 03.06.2020 01:00:00 (CEST)Sete, France (7641): Quantités de précipitations: 28.05.2020 01:00:00 - 03.06.2020 01:00:00 (CEST)
Date & Time tt [°C] td [°C] ff [km/h] ff [knt] fx [km/h] fx [knt] dd ppp [hPa] vv [km] rr [mm]
03.06.2020 01:00:00 19,4 17,5 6 3 19 10 WSW 1012,7 - 0,0
03.06.2020 00:00:00 19,7 17,5 11 6 21 11 SW 1013,2 - 0,0
02.06.2020 23:00:00 19,6 17,2 7 4 22 12 SW 1013,3 - 0,0
02.06.2020 22:00:00 19,9 17,5 16 9 33 18 SSW 1013,3 - 0,0
02.06.2020 21:00:00 20,1 17,7 19 10 30 16 SSW 1013,1 - 0,0
02.06.2020 20:00:00 20,5 17,5 14 8 29 16 SSW 1013,3 25 0,0
02.06.2020 19:00:00 21,8 17,6 14 8 27 14 S 1013,4 - 0,0
02.06.2020 18:00:00 22,6 17,3 13 7 23 12 S 1013,9 - 0,0
02.06.2020 17:00:00 23,6 17,3 15 8 22 12 S 1014,6 20 0,0
02.06.2020 16:00:00 23,6 17,3 14 7 24 13 SSE 1015,0 - 0,0
02.06.2020 15:00:00 23,9 16,7 13 7 21 12 S 1015,7 - 0,0
02.06.2020 14:00:00 22,3 15,2 10 5 22 12 SE 1016,1 20 0,0
02.06.2020 13:00:00 21,9 15,7 10 6 23 12 SE 1016,5 - 0,0
02.06.2020 12:00:00 21,2 15,7 11 6 22 12 ESE 1017,0 - 0,0
02.06.2020 11:00:00 21,7 15,5 12 6 23 12 E 1017,1 15 0,0
02.06.2020 10:00:00 21,5 16,2 10 5 23 12 E 1016,8 - 0,0
02.06.2020 09:00:00 20,2 17,4 6 4 20 11 E 1016,6 - 0,0
02.06.2020 08:00:00 19,2 17,2 11 6 22 12 NE 1016,4 15 0,0
02.06.2020 07:00:00 19,2 17,2 10 5 22 12 E 1016,2 - 0,0
02.06.2020 06:00:00 19,2 17,2 7 4 16 9 E 1016,1 - 0,0
02.06.2020 05:00:00 19,1 17,1 5 3 15 8 E 1016,3 - 0,0
02.06.2020 04:00:00 19,2 17,5 5 3 16 9 E 1016,3 - 0,0
02.06.2020 03:00:00 19,4 17,5 7 4 16 9 ESE 1016,6 - 0,0
02.06.2020 02:00:00 19,5 17,5 8 4 16 9 SE 1016,9 - 0,0
02.06.2020 01:00:00 19,4 17,5 8 4 17 9 ESE 1016,9 - 0,0
02.06.2020 00:00:00 19,6 17,4 4 2 10 5 ESE 1017,3 - 0,0
01.06.2020 23:00:00 19,7 17,3 5 3 16 9 SE 1017,5 - 0,0
01.06.2020 22:00:00 19,8 17,0 10 5 18 10 S 1016,9 - 0,0
01.06.2020 21:00:00 20,2 17,4 10 6 31 17 S 1016,7 - 0,0
01.06.2020 20:00:00 20,4 17,4 14 8 22 12 S 1016,4 20 0,0
01.06.2020 19:00:00 20,7 17,3 12 7 24 13 S 1016,6 - 0,0
01.06.2020 18:00:00 21,5 17,1 11 6 23 12 SSE 1017,2 - 0,0
01.06.2020 17:00:00 22,4 16,0 14 8 23 12 SSE 1017,0 - 0,0
01.06.2020 16:00:00 23,1 15,9 11 6 22 12 SSE 1017,3 - 0,0
01.06.2020 15:00:00 23,4 15,2 12 7 22 12 SSE 1017,3 - 0,0
01.06.2020 14:00:00 22,1 15,0 11 6 26 14 ESE 1017,5 - 0,0
01.06.2020 13:00:00 21,5 16,9 14 7 27 15 ESE 1017,5 - 0,0
01.06.2020 12:00:00 22,1 17,5 13 7 26 14 E 1017,4 - 0,0
01.06.2020 11:00:00 21,2 17,2 13 7 28 15 E 1017,0 25 0,0
01.06.2020 10:00:00 19,2 16,8 13 7 28 15 ENE 1017,1 - 0,0
01.06.2020 09:00:00 19,4 16,2 11 6 24 13 ENE 1016,8 - 0,0
01.06.2020 08:00:00 17,6 15,9 15 8 28 15 NE 1016,6 20 0,0
01.06.2020 07:00:00 17,6 15,9 17 9 34 19 NE 1015,4 - 0,0
01.06.2020 06:00:00 18,3 16,1 10 6 30 16 NE 1015,1 - 0,0
01.06.2020 05:00:00 18,8 16,2 12 7 25 13 E 1014,7 20 0,0
01.06.2020 04:00:00 18,8 16,4 12 6 25 13 E 1015,0 - 0,0
01.06.2020 03:00:00 18,9 16,3 9 5 21 11 E 1015,0 - 0,0
01.06.2020 02:00:00 19,0 16,4 9 5 20 11 SSE 1015,4 - 0,0
01.06.2020 01:00:00 19,0 16,4 11 6 18 10 SSE 1015,6 - 0,0
01.06.2020 00:00:00 19,1 16,5 10 5 17 9 SSE 1015,5 - 0,0
31.05.2020 23:00:00 19,3 16,1 9 5 19 10 S 1016,0 - 0,0
31.05.2020 22:00:00 19,5 16,3 12 7 24 13 S 1015,5 - 0,0
31.05.2020 21:00:00 19,7 16,3 14 8 21 11 S 1015,1 - 0,0
31.05.2020 20:00:00 20,1 16,3 13 7 23 12 S 1014,9 25 0,0
31.05.2020 19:00:00 21,2 16,4 15 8 27 15 S 1014,2 - 0,0
31.05.2020 18:00:00 22,4 16,4 13 7 27 14 SSE 1014,5 - 0,0
31.05.2020 17:00:00 22,4 16,4 10 5 25 13 SE 1014,9 - 0,0
31.05.2020 16:00:00 22,5 16,3 11 6 25 14 SE 1015,3 - 0,0
31.05.2020 15:00:00 23,0 16,3 12 6 26 14 SE 1015,6 - 0,0
31.05.2020 14:00:00 22,7 16,3 12 6 26 14 SE 1015,7 25 0,0
31.05.2020 13:00:00 22,3 16,8 14 8 26 14 SSE 1015,8 - 0,0
31.05.2020 12:00:00 20,0 16,2 9 5 23 13 SE 1015,8 - 0,0
31.05.2020 11:00:00 19,9 16,3 11 6 22 12 ESE 1015,6 - 0,0
31.05.2020 10:00:00 20,0 16,0 10 5 21 12 ESE 1015,4 - 0,0
31.05.2020 09:00:00 19,7 16,3 10 6 22 12 ESE 1015,2 - 0,0
31.05.2020 08:00:00 19,0 15,9 9 5 19 10 ESE 1015,1 25 0,0
31.05.2020 07:00:00 18,7 15,9 10 5 21 11 ESE 1015,0 - 0,0
31.05.2020 06:00:00 18,7 16,1 10 5 21 12 ESE 1014,7 - 0,0
31.05.2020 05:00:00 18,7 15,9 9 5 19 10 ESE 1014,7 20 0,0
31.05.2020 04:00:00 18,9 15,9 8 4 18 10 ESE 1014,9 - 0,0
31.05.2020 03:00:00 19,1 15,8 9 5 19 10 SSE 1015,2 - 0,0
31.05.2020 02:00:00 19,0 15,7 8 4 19 10 SSE 1015,5 - 0,0
31.05.2020 01:00:00 18,7 15,4 10 5 18 10 SSE 1015,8 - 0,0
31.05.2020 00:00:00 18,8 15,1 9 5 16 8 S 1015,6 - 0,0
30.05.2020 23:00:00 19,0 14,5 9 5 19 11 S 1015,6 - 0,0
30.05.2020 22:00:00 19,1 13,9 10 5 25 14 SSW 1015,1 - 0,0
30.05.2020 21:00:00 19,3 14,1 14 8 26 14 SSW 1014,7 - 0,0
30.05.2020 20:00:00 19,5 14,3 14 7 30 16 SSW 1015,1 25 0,0
30.05.2020 19:00:00 20,7 14,8 15 8 28 15 S 1015,1 - 0,0
30.05.2020 18:00:00 21,8 14,7 19 10 33 18 S 1015,4 - 0,0
30.05.2020 17:00:00 22,5 13,8 23 12 34 18 S 1015,5 25 0,0
30.05.2020 16:00:00 22,2 14,3 21 11 33 18 S 1016,0 - 0,0
30.05.2020 15:00:00 22,6 14,9 17 9 26 14 SSE 1016,4 - 0,0
30.05.2020 14:00:00 22,6 14,9 13 7 23 13 SSE 1016,8 25 0,0
30.05.2020 13:00:00 21,5 13,7 9 5 21 11 SE 1017,2 - 0,0
30.05.2020 12:00:00 20,9 12,1 8 4 18 10 ESE 1017,4 - 0,0
30.05.2020 11:00:00 21,4 12,5 9 5 18 10 E 1017,5 20 0,0
30.05.2020 10:00:00 20,6 12,6 10 6 19 11 E 1017,7 - 0,0
30.05.2020 09:00:00 19,2 11,7 9 5 19 11 ENE 1017,9 - 0,0
30.05.2020 08:00:00 17,9 11,2 11 6 18 10 NNE 1017,9 20 0,0
30.05.2020 07:00:00 16,4 10,5 12 6 21 11 N 1017,7 - 0,0
30.05.2020 06:00:00 16,0 11,2 14 8 22 12 N 1017,6 - 0,0
30.05.2020 05:00:00 16,9 11,8 13 7 23 12 NNE 1017,7 - 0,0
30.05.2020 04:00:00 18,0 14,3 9 5 23 13 ESE 1018,2 - 0,0
30.05.2020 03:00:00 18,3 14,2 11 6 29 16 E 1018,3 - 0,0
30.05.2020 02:00:00 18,4 13,7 11 6 25 14 E 1018,6 - 0,0
30.05.2020 01:00:00 18,5 14,2 12 7 27 15 ESE 1018,7 - 0,0
30.05.2020 00:00:00 18,7 13,5 11 6 29 16 E 1018,9 - 0,0
29.05.2020 23:00:00 19,0 13,4 14 7 31 17 ESE 1018,8 - 0,0
29.05.2020 22:00:00 19,2 14,0 13 7 32 17 ESE 1018,5 - 0,0
29.05.2020 21:00:00 19,2 14,7 16 8 40 21 ESE 1017,9 - 0,0
29.05.2020 20:00:00 19,4 14,4 18 10 42 23 ESE 1017,4 - 0,0
29.05.2020 19:00:00 19,8 16,1 18 10 43 23 ESE 1016,9 - 0,0
29.05.2020 18:00:00 19,8 16,6 20 11 41 22 ESE 1016,8 - 0,0
29.05.2020 17:00:00 21,1 17,3 14 8 37 20 ESE 1016,5 - 0,0
29.05.2020 16:00:00 24,0 14,4 12 7 31 17 SE 1016,3 - 0,0
29.05.2020 15:00:00 22,0 13,9 13 7 25 14 S 1016,4 - 0,0
29.05.2020 14:00:00 22,7 15,0 16 9 26 14 S 1016,5 20 0,0
29.05.2020 13:00:00 23,1 13,0 14 7 22 12 SSW 1016,5 - 0,0
29.05.2020 12:00:00 23,6 15,4 8 4 17 9 S 1016,8 - 0,0
29.05.2020 11:00:00 23,9 13,7 7 4 13 7 SSE 1016,8 20 0,0
29.05.2020 10:00:00 23,4 15,4 6 3 9 5 SSE 1016,8 - 0,0
29.05.2020 09:00:00 22,5 15,8 3 2 8 4 E 1017,0 - 0,0
29.05.2020 08:00:00 21,2 14,4 4 2 9 5 NNE 1017,3 20 0,0
29.05.2020 07:00:00 19,5 12,5 4 2 9 5 N 1017,4 - 0,0
29.05.2020 06:00:00 18,1 11,9 3 2 8 4 N 1017,5 - 0,0
29.05.2020 05:00:00 17,9 13,8 4 2 8 4 NNE 1017,7 - 0,0
29.05.2020 04:00:00 18,3 15,7 6 4 8 4 SW 1018,1 - 0,0
29.05.2020 03:00:00 17,9 14,8 2 1 11 6 W 1018,7 - 0,0
29.05.2020 02:00:00 18,3 15,7 0 0 10 5 N 1019,2 - 0,0
29.05.2020 01:00:00 18,5 15,7 3 2 8 4 WSW 1019,6 - 0,0
29.05.2020 00:00:00 18,9 15,9 4 2 6 3 SW 1020,0 - 0,0
28.05.2020 23:00:00 19,2 15,7 4 2 21 11 S 1020,4 - 0,0
28.05.2020 22:00:00 19,6 15,7 16 9 29 16 SW 1019,8 - 0,0
28.05.2020 21:00:00 19,8 15,9 18 10 34 19 SW 1019,9 - 0,0
28.05.2020 20:00:00 20,1 15,5 23 13 34 19 SSW 1020,2 25 0,0
28.05.2020 19:00:00 20,6 16,0 22 12 36 19 SSW 1020,5 - 0,0
28.05.2020 18:00:00 21,2 16,4 21 11 36 19 SSW 1021,2 - 0,0
28.05.2020 17:00:00 21,5 16,0 20 11 33 18 SSW 1021,8 - 0,0
28.05.2020 16:00:00 22,2 14,3 20 11 32 18 SSW 1022,7 - 0,0
28.05.2020 15:00:00 22,2 15,8 19 10 30 16 SSW 1023,4 - 0,0
28.05.2020 14:00:00 22,6 16,4 16 9 24 13 S 1024,0 - 0,0
28.05.2020 13:00:00 22,9 16,2 11 6 21 12 S 1024,7 - 0,0
28.05.2020 12:00:00 23,0 16,3 8 4 14 8 SSE 1025,2 - 0,0
28.05.2020 11:00:00 22,2 16,2 8 4 14 7 SSE 1025,5 15 0,0
28.05.2020 10:00:00 20,5 15,7 6 3 13 7 ESE 1026,1 - 0,0
28.05.2020 09:00:00 20,6 15,4 5 3 13 7 E 1026,3 - 0,0
28.05.2020 08:00:00 19,0 15,1 5 3 11 6 NE 1026,4 15 0,0
28.05.2020 07:00:00 17,8 15,6 3 2 5 3 NNE 1026,7 - 0,0
28.05.2020 06:00:00 16,7 14,9 2 1 4 2 N 1026,7 - 0,0
28.05.2020 05:00:00 16,6 14,6 3 2 8 4 N 1026,7 20 0,0
28.05.2020 04:00:00 17,0 15,2 6 4 10 5 NNW 1027,0 - 0,0
28.05.2020 03:00:00 17,4 15,6 2 1 6 3 NNW 1027,4 - 0,0
28.05.2020 02:00:00 17,8 15,2 3 2 8 5 SW 1027,6 - 0,0
28.05.2020 01:00:00 18,1 15,2 5 3 9 5 WSW 1027,9 - 0,0

tt = Température de l'air
td = dewpoint
ff = Vitesse du vent
fx = gusts
dd = Direction du vent
ppp = reduced air pressure
vv = visibility
rr = Quantités de précipitations

stations d'obs. à proximité